Weather History for Baltimore Martin, MD

Change the Weather History Date:

Thursday, March 7, 2013

  Actual Average Record
Temperature  
Mean Temperature 42 °F -  
Max Temperature 50 °F 45 °F 68 °F (2009)
Min Temperature 32 °F 31 °F 21 °F (2007)
Degree Days  
Heating Degree Days 24    
Moisture  
Dew Point 28 °F    
Average Humidity 62    
Maximum Humidity 81    
Minimum Humidity 40    
Precipitation  
Precipitation 0.00 in - - ()
Sea Level Pressure  
Sea Level Pressure 30.07 in    
Wind  
Wind Speed 11 mph (NW)    
Max Wind Speed 17 mph    
Max Gust Speed 26 mph    
Visibility 10 miles    
Events      
Averages and records for this station are not official NWS values.
T = Trace of Precipitation, MM = Missing Value Source: NWS Daily Summary

Daily Weather History Graph

Daily Weather History Graph

Search for Another Location

Airport:

Trip Planner

Search our weather history database for the weather conditions in past years. The results will help you decide how hot, cold, wet, or windy it might be!

Date:

Astronomy

Mar. 07, 2013 Rise Set
Actual Time 6:29 AM EST 6:04 PM EST
Civil Twilight 6:02 AM EST 6:31 PM EST
Nautical Twilight 5:31 AM EST 7:02 PM EST
Astronomical Twilight 5:00 AM EST 7:33 PM EST
Moon 3:25 AM EST (3/7) 1:51 PM EST (3/7)
Length of Visible Light 12h 29m
Length of Day
11h 35m
Waning Crescent, 20% of the Moon is Illuminated
Mar 7
Waning Crescent
Mar 11
New
Mar 19
First Quarter
Mar 27
Full
Apr 3
Last Quarter

Hourly Weather History & Observations

Time (EST) Temp. Windchill Dew Point Humidity Pressure Visibility Wind Dir Wind Speed Gust Speed Precip Events Conditions
12:09 AM 41.0 °F 33.9 °F 30.2 °F 65% 29.97 in 10.0 mi NW 12.7 mph 21.9 mph N/A   Scattered Clouds
12:30 AM 41.0 °F 33.9 °F 30.2 °F 65% 29.98 in 10.0 mi NW 12.7 mph 16.1 mph N/A   Scattered Clouds
12:51 AM 41.0 °F 33.5 °F 30.2 °F 65% 29.99 in 10.0 mi NW 13.8 mph 21.9 mph N/A   Clear
1:09 AM 41.0 °F 34.7 °F 30.2 °F 65% 29.99 in 10.0 mi NW 10.4 mph 17.3 mph N/A   Scattered Clouds
1:30 AM 41.0 °F 33.5 °F 30.2 °F 65% 29.99 in 10.0 mi NW 13.8 mph 21.9 mph N/A   Mostly Cloudy
1:51 AM 41.0 °F 33.5 °F 30.2 °F 65% 29.99 in 10.0 mi NW 13.8 mph 17.3 mph N/A   Overcast
2:09 AM 41.0 °F 35.2 °F 28.4 °F 61% 30.00 in 10.0 mi NW 9.2 mph - N/A   Overcast
2:30 AM 41.0 °F 33.5 °F 30.2 °F 65% 30.00 in 10.0 mi NW 13.8 mph - N/A   Overcast
2:51 AM 41.0 °F 35.8 °F 30.2 °F 65% 30.00 in 10.0 mi NW 8.1 mph - N/A   Overcast
3:12 AM 41.0 °F 36.4 °F 30.2 °F 65% 30.00 in 10.0 mi NW 6.9 mph - N/A   Overcast
3:30 AM 39.2 °F 34.2 °F 30.2 °F 70% 30.01 in 10.0 mi NW 6.9 mph - N/A   Overcast
4:12 AM 39.2 °F 33.0 °F 30.2 °F 70% 30.02 in 10.0 mi WNW 9.2 mph - N/A   Mostly Cloudy
4:30 AM 39.2 °F 32.0 °F 30.2 °F 70% 30.02 in 10.0 mi NW 11.5 mph 17.3 mph N/A   Scattered Clouds
4:51 AM 37.4 °F 30.3 °F 28.4 °F 70% 30.03 in 10.0 mi WNW 10.4 mph 16.1 mph N/A   Clear
5:12 AM 35.6 °F 29.2 °F 30.2 °F 81% 30.03 in 10.0 mi WNW 8.1 mph - N/A   Clear
5:30 AM 35.6 °F 28.6 °F 30.2 °F 81% 30.03 in 10.0 mi WNW 9.2 mph - N/A   Clear
5:33 AM 35.6 °F 29.2 °F 30.2 °F 81% 30.04 in 10.0 mi WNW 8.1 mph - N/A   Clear
5:45 AM 35.6 °F 27.5 °F 28.4 °F 75% 30.04 in 10.0 mi WNW 11.5 mph - N/A   Scattered Clouds
6:55 AM 33.8 °F 25.3 °F 28.4 °F 81% 30.06 in 10.0 mi WNW 11.5 mph - N/A   Scattered Clouds
8:45 AM 41.0 °F 34.3 °F 26.6 °F 57% 30.09 in 10.0 mi NNW 11.5 mph 23.0 mph N/A   Mostly Cloudy
9:45 AM 41.0 °F 33.9 °F 26.6 °F 57% 30.11 in 10.0 mi NW 12.7 mph 23.0 mph N/A   Mostly Cloudy
10:45 AM 42.8 °F 35.8 °F 26.6 °F 53% 30.11 in 10.0 mi NNW 13.8 mph 23.0 mph N/A   Mostly Cloudy
11:55 AM 44.6 °F 38.1 °F 26.6 °F 49% 30.11 in 10.0 mi NNW 13.8 mph 25.3 mph N/A   Mostly Cloudy
12:45 PM 46.4 °F 41.1 °F 28.4 °F 50% 30.10 in 10.0 mi NNW 11.5 mph 26.5 mph N/A   Scattered Clouds
1:45 PM 46.4 °F 40.4 °F 26.6 °F 46% 30.07 in 10.0 mi NW 13.8 mph 21.9 mph N/A   Partly Cloudy
2:45 PM 48.2 °F - 26.6 °F 43% 30.07 in 10.0 mi NNW 17.3 mph 23.0 mph N/A   Scattered Clouds
3:45 PM 50.0 °F - 26.6 °F 40% 30.07 in 10.0 mi NW 10.4 mph 21.9 mph N/A   Scattered Clouds
4:45 PM 48.2 °F - 24.8 °F 40% 30.08 in 10.0 mi NNW 16.1 mph 23.0 mph N/A   Scattered Clouds
5:45 PM 46.4 °F 41.5 °F 24.8 °F 43% 30.10 in 10.0 mi NNW 10.4 mph - N/A   Partly Cloudy
6:54 PM 44.6 °F 40.7 °F 24.8 °F 46% 30.13 in 10.0 mi NW 6.9 mph - N/A   Partly Cloudy
7:54 PM 42.8 °F 38.6 °F 23.0 °F 46% 30.14 in 10.0 mi NNW 6.9 mph - N/A   Partly Cloudy
8:54 PM 41.0 °F 37.1 °F 23.0 °F 49% 30.15 in 10.0 mi NW 5.8 mph - N/A   Scattered Clouds
9:45 PM 35.6 °F 29.9 °F 24.8 °F 65% 30.15 in 10.0 mi WNW 6.9 mph - N/A   Scattered Clouds
10:12 PM 35.6 °F 29.9 °F 24.8 °F 65% 30.15 in 10.0 mi WNW 6.9 mph - N/A   Clear
10:33 PM 35.6 °F 30.7 °F 24.8 °F 65% 30.15 in 10.0 mi WNW 5.8 mph - N/A   Clear
10:54 PM 35.6 °F 29.9 °F 24.8 °F 65% 30.14 in 10.0 mi WNW 6.9 mph - N/A   Clear
11:12 PM 33.8 °F 28.6 °F 24.8 °F 70% 30.14 in 10.0 mi WNW 5.8 mph - N/A   Clear
11:33 PM 33.8 °F 29.6 °F 24.8 °F 70% 30.15 in 10.0 mi WNW 4.6 mph - N/A   Clear
11:54 PM 32.0 °F 25.6 °F 24.8 °F 75% 30.14 in 10.0 mi West 6.9 mph - N/A   Clear